Showing default

METEOR 2-5, 11605

Orbit data source: Space-Track

METEOR 2-5, 11605 is a Commonwealth of Independent States-origin payload satellite in LEO that was launched on Wed, 31 Oct 1979 UTC via a VOSTOK 8A92M launch vehicle from the Plesetsk Missile And Space Complex (PKMTR). Payload-class satellites include a variety of spacecraft equipped with specific instruments for various scientific and technological missions. These include communications satellites like Starlink; space stations such as the ISS; scientific satellites like the Hubble; Earth observation satellites from companies like Planet Labs, Umbra, and HawkEye 360; GPS; miniature CubeSats for education and research; and military/defense satellites.

Loading next visibility...
Identifier
11605, 1979-095A
Orbit
LEO
Country
Flag of CISCIS
Related business
Manufacturer
VNIIEM
Mission
Spacecraft
Bus & Motor
METEOR-2, Unknown motor
Mass
~1,500 kg wet, ~1,500 kg dry
Launch date (UTC)
1979-10-31 (46 years ago)
Launch vehicle
VOSTOK 8A92M
Launch site
Plesetsk Missile And Space Complex (PKMTR)
Object type
Payload
Rocket body
Debris
Shape & HBR
Unknown
Radar Cross Section
Large (>1 m²)

Expand to show TLE details & history
Last TLE update: 11 hours ago

TLE from 11 hours ago
0 METEOR 2-5
1 11605U 79095A   25355.11730977  .00000135  00000-0  72879-4 0  9994
2 11605  81.2111  44.6331 0009311  51.2545 308.9455 14.07453168368253
Epoch: 2025-12-21T02:48Z
TLE epoch observation values (Epoch: 2025-12-21T02:48:55.564Z)
Latitude
-0°
Longitude
-87.53278°
Altitude
866.757 km
Speed
7.421 km/s
True Right ascension
02h 58m 31s
True Declination
0° 00' 00"
Sunlit
Object was in full shadow at epoch
Visualization orbit readout
Latitude
Unknown
Longitude
Unknown
Altitude
Unknown
Speed
Unknown
Apparent Right ascension
Unknown
Apparent Declination
Unknown
Sunlit
N/A
Visualization observer readout
Local Sidereal Time
12:21:38
Azimuth
Unknown
Elevation
Unknown
Doppler factor
Unknown
Orbital elements
Apogee altitude
872.024 km
Perigee altitude
858.535 km
Semi-major axis
7,243.416 km
Eccentricity
0.00093
Inclination
81.2111°
RAAN
44.6331°
Arg. of periapsis
51.2545°
True anomaly
308.86246°
Mean anomaly
308.9455°
Eccentric anomaly
308.90398°
Mean motion
3.52069 °/min
Orbital period
102.25 mins
BSTAR
0.000072879
Loading maneuver chart data...
Computing Atmospheric mass density...

Documentation

Showing up to 5 results
|